User: anonymous   Login
Location: Prairie State College
(41.5244°N, 87.6382°W)
Time: 08:09:08
(UTC-06:00)
Language:

Cosmos 1140 Rocket - Orbit

View from above orbital plane
View from above orbital plane
View from above satellite
View from above satellite

Ground track
Ground track

The orbit data is extracted from the following two-line orbital elements,

1 11574U 79089B   15027.17805093  .00000240  00000-0  83836-4 0  9414
2 11574 074.0704 028.3876 0015197 159.7591 272.3039 14.40386604851596
Epoch (UTC): 27 January 2015 04:16:23
Eccentricity: 0.0015197
inclination: 74.0704°
perigee height: 746 km
apogee height: 768 km
right ascension of ascending node: 28.3876°
argument of perigee: 159.7591°
revolutions per day: 14.40386604
mean anomaly at epoch: 272.3039°
orbit number at epoch: 85159

The dashed part of the orbit path shows where the satellite is in the earth's shadow,  

DLR